Weather in Deby

Russia / Udmurt Republic     57°49′35″N   52°29′41″E
temp.,
°C
wind,
m/s
gust,
m/s
humid.,
%
clouds,
%
prec.,
mm/h
press.,
hPa
HPBL,
m
15 may, sat
sat1501:00+17ssw49725 0.0 1018177
04:00+15sw3783100 0.0 1018107
07:00+18wsw4972100 0.0 1019263
10:00+23ssw335799 0.0 1018694
13:00+27ssw464199 0.0 10181641
16:00+28sw61136100 0.0 10161627
19:00+25sw713430 0.0 1015600
22:00+22sw615525 0.0 1016479
16 may, sun
sun1601:00+18ssw513715 0.0 1016266
04:00+16ssw410703 0.0 1017169
07:00+19ssw410615 0.0 1017254
10:00+26ssw611385 0.0 1016878
13:00+29ssw814295 0.0 10153006
16:00+29sw71330100 0.0 10142233
19:00+24ssw61247100 0.0 1014591
22:00+19ssw4116013 0.0 1015224
17 may, mon
mon1701:00+16wsw357757 0.3 101584
04:00+15w41095100 2.1 1017244
07:00+17sw488658 0.5 1017379
10:00+22wsw57605 0.5 10171012
13:00+24w68423 0.0 10171747
16:00+24wnw694478 0.0 10171800
19:00+21w4959100 0.0 1017440
22:00+17wnw387496 0.0 1018136
18 may, tue
tue1801:00+15nnw227566 0.0 101931
04:00+14n227276 0.0 101920
07:00+16nne236646 0.0 1020176
10:00+21n225017 0.0 1020849
13:00+23nnw33425 0.0 10201313
16:00+24nnw33405 0.0 10201420
19:00+22ne245317 0.0 102099
22:00+16ene5126614 0.0 1021302
19 may, wed
wed1901:00+13ese411829 0.0 1023295
04:00+15ese411695 0.0 1020192
07:00+18ese4106155 0.0 1020322
10:00+24se57455 0.0 1020833
13:00+27se55385 0.0 10191774
16:00+28se563420 0.0 10182576
19:00+24se48515 0.0 1017244
22:00+19se513635 0.0 1017308